Location: Tel Aviv
(32.0670°N, 34.7670°E)
Time: 09:42:51
(UTC+02:00)

Courier 1B Rocket - Visible Passes

Search period start: 28 January 2022 00:00
Search period end: 07 February 2022 00:00
Orbit: 920 x 1202 km, 28.2° (Epoch: 27 January)

Date Brightness Start Highest point End Pass type
(mag) Time Alt. Az. Time Alt. Az. Time Alt. Az.
28 Jan 5.7 04:23:16 40° SSW 04:23:18 40° SSW 04:29:21 10° SE visible
28 Jan 6.9 06:12:32 10° WSW 06:16:01 15° SSW 06:19:26 10° S visible
29 Jan 6.8 03:26:04 25° SE 03:26:04 25° SE 03:28:47 10° ESE visible
29 Jan 6.5 05:12:27 17° WSW 05:15:13 22° SSW 05:20:06 10° SSE visible
30 Jan 6.2 04:15:16 30° S 04:15:16 30° S 04:20:06 10° SE visible
30 Jan 7.4 19:36:30 10° S 19:37:38 12° SSE 19:37:38 12° SSE visible
31 Jan 7.2 03:18:06 18° SE 03:18:06 18° SE 03:19:44 10° SE visible
31 Jan 6.8 05:04:28 14° SW 05:06:10 15° SSW 05:09:53 10° S visible
31 Jan 7.4 20:25:30 10° SSW 20:26:55 15° SSW 20:26:55 15° SSW visible
01 Feb 6.8 04:07:21 20° S 04:07:21 20° S 04:10:29 10° SSE visible
01 Feb 6.9 19:25:30 10° SSW 19:29:49 20° SSE 19:29:49 20° SSE visible
02 Feb 7.6 03:10:13 11° SE 03:10:13 11° SE 03:10:26 10° SE visible
02 Feb 7.2 18:26:26 10° S 18:29:46 13° SSE 18:32:42 11° SE visible
02 Feb 6.9 20:15:50 10° SW 20:19:05 24° SSW 20:19:05 24° SSW visible
03 Feb 7.3 03:59:30 12° S 03:59:30 12° S 04:00:16 10° S visible
03 Feb 6.4 19:15:26 10° SSW 19:21:38 28° SSE 19:21:58 27° SSE visible
03 Feb 7.6 21:07:24 10° WSW 21:08:21 14° WSW 21:08:21 14° WSW visible
04 Feb 6.9 18:15:31 10° SSW 18:20:37 20° SSE 18:24:50 13° ESE visible
04 Feb 6.4 20:06:30 10° SW 20:11:13 35° SSW 20:11:13 35° SSW visible
05 Feb 6.1 19:05:50 10° SW 19:12:33 36° SSE 19:14:04 33° SE visible
05 Feb 7.3 20:58:23 10° WSW 21:00:26 20° WSW 21:00:26 20° WSW visible
06 Feb 6.5 18:05:31 10° SSW 18:11:30 27° SSE 18:16:53 13° ESE visible
06 Feb 5.9 19:57:23 10° WSW 20:03:16 48° SSW 20:03:16 48° SSW visible
